• In United Kingdom
  • List of Countries
  • For 7 days
  • Water Temperature
  • Satellite Maps
  • Weather Map
  • Weather Widgets
  • user-avatar
    Login

    Hourly Weather Hermosillo

    Today, 25 November, Saturday

    Time Temperature Precipitation Wind Pressure Humidity
    00:00 +21°C° 0 mm 0 mps 741 mmHg 42%
    01:00 +20°C° 0 mm 0 mps 741 mmHg 43%
    02:00 +20°C° 0 mm 0 mps 741 mmHg 44%
    03:00 +20°C° 0 mm 0 mps 741 mmHg 45%
    04:00 +21°C° 0 mm 1 mps 742 mmHg 45%
    05:00 +21°C° 0 mm 1 mps 742 mmHg 46%
    06:00 +22°C° 0 mm 1 mps 742 mmHg 44%
    07:00 +23°C° 0 mm 1 mps 743 mmHg 42%
    08:00 +24°C° 0 mm 1 mps 743 mmHg 40%
    09:00 +26°C° 0 mm 1 mps 743 mmHg 35%
    10:00 +28°C° 0 mm 1 mps 743 mmHg 29%
    11:00 +30°C° 0 mm 1 mps 744 mmHg 24%
    12:00 +31°C° 0 mm 1 mps 743 mmHg 22%
    13:00 +32°C° 0 mm 1 mps 743 mmHg 20%
    14:00 +34°C° 0 mm 2 mps 742 mmHg 18%
    15:00 +32°C° 0 mm 2 mps 742 mmHg 20%
    16:00 +32°C° 0 mm 2 mps 742 mmHg 21%
    17:00 +31°C° 0 mm 3 mps 742 mmHg 22%
    18:00 +30°C° 0 mm 3 mps 742 mmHg 26%
    19:00 +28°C° 0 mm 2 mps 742 mmHg 30%
    20:00 +26°C° 0 mm 2 mps 743 mmHg 34%
    21:00 +26°C° 0 mm 2 mps 743 mmHg 36%
    22:00 +25°C° 0 mm 1 mps 743 mmHg 38%
    23:00 +24°C° 0 mm 1 mps 743 mmHg 40%

    Tomorrow, 26 November, Sunday

    Time Temperature Precipitation Wind Pressure Humidity
    00:00 +24°C° 0 mm 1 mps 743 mmHg 41%
    01:00 +23°C° 0 mm 1 mps 743 mmHg 41%
    02:00 +23°C° 0 mm 1 mps 743 mmHg 42%
    03:00 +22°C° 0 mm 1 mps 743 mmHg 41%
    04:00 +22°C° 0 mm 1 mps 742 mmHg 41%
    05:00 +22°C° 0 mm 1 mps 742 mmHg 40%
    06:00 +23°C° 0 mm 1 mps 743 mmHg 38%
    07:00 +23°C° 0 mm 1 mps 743 mmHg 36%
    08:00 +24°C° 0 mm 1 mps 743 mmHg 35%
    09:00 +26°C° 0 mm 1 mps 744 mmHg 29%
    10:00 +27°C° 0 mm 0 mps 744 mmHg 24%
    11:00 +29°C° 0 mm 0 mps 744 mmHg 19%
    12:00 +32°C° 0 mm 1 mps 743 mmHg 17%
    13:00 +33°C° 0 mm 1 mps 742 mmHg 16%
    14:00 +34°C° 0 mm 1 mps 742 mmHg 15%
    15:00 +35°C° 0 mm 2 mps 741 mmHg 16%
    16:00 +34°C° 0 mm 2 mps 741 mmHg 17%
    17:00 +33°C° 0 mm 3 mps 740 mmHg 19%
    18:00 +30°C° 0 mm 2 mps 741 mmHg 21%
    19:00 +29°C° 0 mm 2 mps 741 mmHg 24%
    20:00 +27°C° 0 mm 2 mps 741 mmHg 27%
    21:00 +26°C° 0 mm 1 mps 741 mmHg 30%
    22:00 +25°C° 0 mm 1 mps 741 mmHg 32%
    23:00 +22°C° 0 mm 0 mps 742 mmHg 35%

    Day after tomorrow, 27 November, Monday

    Time Temperature Precipitation Wind Pressure Humidity
    00:00 +22°C° 0 mm 0 mps 741 mmHg 35%
    01:00 +22°C° 0 mm 0 mps 741 mmHg 36%
    02:00 +21°C° 0 mm 0 mps 741 mmHg 37%
    03:00 +21°C° 0 mm 0 mps 741 mmHg 37%
    04:00 +22°C° 0 mm 1 mps 740 mmHg 38%
    05:00 +22°C° 0 mm 1 mps 740 mmHg 38%
    06:00 +23°C° 0 mm 1 mps 741 mmHg 37%
    07:00 +24°C° 0 mm 1 mps 741 mmHg 36%
    08:00 +25°C° 0 mm 1 mps 742 mmHg 35%
    09:00 +27°C° 0 mm 2 mps 742 mmHg 31%
    10:00 +29°C° 0 mm 2 mps 742 mmHg 27%
    11:00 +31°C° 0 mm 2 mps 742 mmHg 23%
    12:00 +33°C° 0 mm 3 mps 741 mmHg 21%
    13:00 +34°C° 0 mm 3 mps 740 mmHg 20%
    14:00 +34°C° 0 mm 4 mps 739 mmHg 19%
    15:00 +34°C° 0 mm 4 mps 739 mmHg 20%
    16:00 +33°C° 0 mm 4 mps 739 mmHg 22%
    17:00 +32°C° 0 mm 4 mps 739 mmHg 23%
    18:00 +29°C° 0 mm 3 mps 739 mmHg 27%
    19:00 +28°C° 0 mm 2 mps 740 mmHg 30%
    20:00 +26°C° 0 mm 2 mps 740 mmHg 34%
    21:00 +25°C° 0 mm 2 mps 740 mmHg 36%
    22:00 +24°C° 0 mm 1 mps 741 mmHg 39%
    23:00 +24°C° 0 mm 1 mps 741 mmHg 41%

    28 November, Tuesday

    Time Temperature Precipitation Wind Pressure Humidity
    00:00 +23°C° 0 mm 1 mps 741 mmHg 44%
    01:00 +22°C° 0 mm 1 mps 740 mmHg 46%
    02:00 +22°C° 0 mm 1 mps 740 mmHg 48%
    03:00 +21°C° 0 mm 1 mps 740 mmHg 51%
    04:00 +19°C° 0 mm 0 mps 740 mmHg 53%
    05:00 +18°C° 0 mm 0 mps 740 mmHg 56%
    06:00 +19°C° 0 mm 0 mps 741 mmHg 54%
    07:00 +20°C° 0 mm 0 mps 742 mmHg 53%
    08:00 +22°C° 0 mm 1 mps 742 mmHg 51%
    09:00 +24°C° 0 mm 1 mps 742 mmHg 46%
    10:00 +25°C° 0 mm 1 mps 743 mmHg 40%
    11:00 +27°C° 0 mm 1 mps 743 mmHg 34%
    12:00 +28°C° 0 mm 1 mps 742 mmHg 32%
    13:00 +28°C° 0 mm 1 mps 742 mmHg 29%
    14:00 +29°C° 0 mm 1 mps 741 mmHg 26%
    15:00 +29°C° 0 mm 1 mps 741 mmHg 27%
    16:00 +28°C° 0 mm 2 mps 741 mmHg 27%
    17:00 +28°C° 0 mm 2 mps 741 mmHg 28%
    18:00 +26°C° 0 mm 2 mps 741 mmHg 31%
    19:00 +25°C° 0 mm 2 mps 742 mmHg 33%
    20:00 +23°C° 0 mm 2 mps 742 mmHg 36%
    21:00 +21°C° 0 mm 2 mps 742 mmHg 37%
    22:00 +22°C° 0 mm 1 mps 742 mmHg 38%
    23:00 +21°C° 0 mm 1 mps 742 mmHg 40%

    29 November, Wednesday

    Time Temperature Precipitation Wind Pressure Humidity
    00:00 +20°C° 0 mm 1 mps 742 mmHg 40%
    01:00 +20°C° 0 mm 1 mps 742 mmHg 41%
    02:00 +20°C° 0 mm 1 mps 742 mmHg 42%
    03:00 +19°C° 0 mm 1 mps 742 mmHg 42%
    04:00 +19°C° 0 mm 1 mps 742 mmHg 42%
    05:00 +19°C° 0 mm 1 mps 742 mmHg 42%
    06:00 +20°C° 0 mm 1 mps 742 mmHg 40%
    07:00 +20°C° 0 mm 1 mps 743 mmHg 38%
    08:00 +21°C° 0 mm 1 mps 743 mmHg 37%
    09:00 +23°C° 0 mm 1 mps 743 mmHg 32%
    10:00 +26°C° 0 mm 1 mps 744 mmHg 26%
    11:00 +28°C° 0 mm 1 mps 744 mmHg 21%
    12:00 +29°C° 0 mm 1 mps 743 mmHg 20%
    13:00 +30°C° 0 mm 1 mps 743 mmHg 19%
    14:00 +31°C° 0 mm 1 mps 742 mmHg 18%
    15:00 +30°C° 0 mm 2 mps 742 mmHg 19%
    16:00 +30°C° 0 mm 2 mps 742 mmHg 21%
    17:00 +29°C° 0 mm 3 mps 742 mmHg 22%
    18:00 +28°C° 0 mm 2 mps 743 mmHg 24%
    19:00 +26°C° 0 mm 2 mps 743 mmHg 26%
    20:00 +25°C° 0 mm 2 mps 743 mmHg 29%
    21:00 +24°C° 0 mm 1 mps 743 mmHg 31%
    22:00 +23°C° 0 mm 1 mps 744 mmHg 32%
    23:00 +22°C° 0 mm 1 mps 744 mmHg 34%

    30 November, Thursday

    Time Temperature Precipitation Wind Pressure Humidity
    00:00 +22°C° 0 mm 1 mps 743 mmHg 35%
    01:00 +19°C° 0 mm 0 mps 743 mmHg 36%
    02:00 +19°C° 0 mm 0 mps 743 mmHg 36%
    03:00 +18°C° 0 mm 0 mps 743 mmHg 36%
    04:00 +18°C° 0 mm 0 mps 743 mmHg 37%
    05:00 +20°C° 0 mm 1 mps 743 mmHg 37%
    06:00 +21°C° 0 mm 1 mps 743 mmHg 35%
    07:00 +21°C° 0 mm 1 mps 744 mmHg 34%
    08:00 +22°C° 0 mm 1 mps 744 mmHg 33%
    09:00 +25°C° 0 mm 1 mps 744 mmHg 28%
    10:00 +27°C° 0 mm 1 mps 744 mmHg 24%
    11:00 +29°C° 0 mm 1 mps 744 mmHg 19%
    12:00 +30°C° 0 mm 1 mps 743 mmHg 18%
    13:00 +31°C° 0 mm 2 mps 742 mmHg 17%
    14:00 +32°C° 0 mm 2 mps 741 mmHg 16%
    15:00 +31°C° 0 mm 2 mps 741 mmHg 17%
    16:00 +31°C° 0 mm 3 mps 741 mmHg 18%
    17:00 +30°C° 0 mm 3 mps 741 mmHg 19%
    18:00 +28°C° 0 mm 3 mps 741 mmHg 22%
    19:00 +26°C° 0 mm 2 mps 741 mmHg 25%
    20:00 +24°C° 0 mm 1 mps 742 mmHg 28%
    21:00 +24°C° 0 mm 1 mps 742 mmHg 30%
    22:00 +23°C° 0 mm 1 mps 741 mmHg 32%
    23:00 +20°C° 0 mm 0 mps 741 mmHg 34%
    Show more